Regional Weather Roundup
Issued by NWS Midland/Odessa, TX

Skip options and go directly to product.
Home | Oldest Version | Previous Version | Current Version | All | Text Only | Save Text | Print | Product List | Glossary On

Skip product version selection by date and time.   
364
ASUS44 KMAF 011710
RWRMAF
MIDLAND AREA WEATHER ROUNDUP
NATIONAL WEATHER SERVICE MIDLAND TX
1200 PM CDT WED APR 01 2015

...IN SOUTHWEST TEXAS AND SOUTHEAST NEW MEXICO...

CITY           SKY/WX    TMP DP  RH WIND       PRES   REMARKS
ALPINE         SUNNY     72  42  33 W20G25    30.07S
ANDREWS        FAIR      74  45  35 SW12      29.92S
ARTESIA        SUNNY     77  37  24 CALM      29.93F
BIG SPRING     SUNNY     80  46  30 S16G22    29.92S
CARLSBAD       SUNNY     80  39  23 NW12      29.92S
DRYDEN           N/A     76  53  44 S10G18    29.93F
FORT STOCKTON  SUNNY     78  45  30 SW9       29.94F
GUAD PASS      SUNNY     64  43  46 SW20      30.06S
HOBBS          SUNNY     75  37  25 W9        29.94S
MARFA          SUNNY     70  43  37 W16G23    30.07S
MIDLAND AIRPK  SUNNY     77  45  32 SW12      29.91F
MIDLAND INTL   SUNNY     77  47  34 SW15      29.91F
ODESSA         SUNNY     76  44  32 SW17      29.92F
PECOS          SUNNY     78  44  30 W17       29.92S
PRESIDIO       FAIR      71  53  54 CALM      30.00F
SEMINOLE       SUNNY     75  42  30 SW12      29.93F
SNYDER         PTSUNNY   74  52  45 S14G20    29.90F
WINK           SUNNY     76  44  32 W13       29.90F
$$
...OTHER STATIONS IN TEXAS...

CITY           SKY/WX    TMP DP  RH WIND       PRES   REMARKS
ABILENE        PTSUNNY   74  62  66 S10       29.90F
AMARILLO       SUNNY     75  39  27 S12       29.84S
AUSTIN         CLOUDY    71  65  81 S13       29.98S
BROWNSVILLE    CLOUDY    77  70  79 SE20G25   29.97F
CORPUS CHRISTI CLOUDY    75  70  84 S18       29.98S
DALLAS FTW     CLOUDY    76  67  73 S15       29.90F
DEL RIO        CLOUDY    70  65  84 SE6       29.94S HAZE
EL PASO        MOSUNNY   74  40  29 VRB5      30.00S
HOUSTON INT    CLOUDY    78  66  66 S9        30.01F
LUBBOCK        MOSUNNY   75  46  35 SW14      29.88F
SAN ANGELO     MOSUNNY   77  58  51 S13       29.90F
SAN ANTONIO    CLOUDY    70  65  84 SE13      29.96F
WACO           MOSUNNY   76  65  68 S21G28    29.93S
WICHITA FALLS  NOT AVBL
$$
...OTHER LOCATIONS IN NEW MEXICO...

CITY           SKY/WX    TMP DP  RH WIND       PRES   REMARKS
ALAMAGORDO     MOSUNNY   68  39  34 SW5       30.02R
ALBUQUERQUE    MOSUNNY   68  30  24 W13G20    30.01F
CANNON AFB     SUNNY     76  32  19 NW13G21   29.89S
CLOVIS         SUNNY     77  36  22 NW14      29.88S
HOLLOMAN AFB   MOSUNNY   72  41  32 W7        30.00R
ROSWELL        SUNNY     77  35  21 VRB5      29.92S
RUIDOSO        SUNNY     63  28  27 NW18G29   30.11F
SANTA FE       SUNNY     63  27  25 SW13      30.02F
TRUTH OR CONSE SUNNY     70  36  28 S9        30.02F
TUCUMCARI      SUNNY     77  29  17 W13       29.85F
$$

USA.gov is the U.S. government's official web portal to all federal, state and local government web resources and services.